Flag for Germany Weather past 2 weeks in Würzburg, Bavaria, Germany

Now
71 °F

Scattered clouds.


Feels Like: 75 °F
Forecast: 59 / 94 °F
Wind: 5 mph from Northwest

Location: Wuerzburg

Current Time: Jul 6, 2015 at 10:21:34 AM

Latest Report: Jul 6, 2015 at 10:00 AM


Visibility: 28 mi

Pressure: 30.20 "Hg

Humidity: 63%

Dew point: 58 °F

Location of WürzburgLocation

Historic Weather in Würzburg — Graph

°F

Würzburg temperature yesterday

Maximum temperature yesterday: 100 °F (at 5:00 PM)
Minimum temperature yesterday: 71 °F (at 7:00 AM)
Average temperature yesterday: 86 °F

Past Weeks' High & Low Weather Summary

 TemperatureHumidityPressure
High100 °F (Jul 5, 5:00 PM)98% (Jun 22, 4:00 AM)30.26 "Hg (Jun 22, 4:00 AM)
Low48 °F (Jun 23, 6:00 AM)21% (Jul 5, 5:00 PM)29.72 "Hg (Jun 23, 1:00 AM)
Average70 °F61%30.10 "Hg
* Reported Jun 21 9:00 AM — Jul 6 9:00 AM, Würzburg, Weather by CustomWeather, © 2015

Note: Actual official high and low records may vary slightly from our data, if they occured in-between our weather recording intervals... More about our weather records

Advertising

Würzburg weather history for previous 24 hours

 ConditionsComfort  
Time TempWeatherWind HumidityBarometerVisibility
9:00 AM
Mon, Jul 6
69 °FPassing clouds.3 mph63%30.19 "Hg22 mi
8:00 AM67 °FScattered clouds.3 mph72%30.18 "Hg31 mi
7:00 AM67 °FPartly sunny.5 mph79%30.16 "Hg19 mi
5:00 AM68 °FOvercast.5 mph88%30.11 "Hg9 mi
4:00 AM70 °FThunderstorms. Overcast.5 mph86%30.08 "Hg9 mi
3:00 AM71 °FOvercast.2 mph86%30.06 "Hg12 mi
2:00 AM73 °FPassing clouds.3 mph79%30.03 "Hg14 mi
1:00 AM75 °FOvercast.3 mph76%29.98 "Hg16 mi
12:00 AM73 °FThunderstorms. Overcast.3 mph82%29.93 "Hg17 mi
11:00 PM
Sun, Jul 5
N/AThundershowers.21 mphN/AN/A1 mi
10:00 PM88 °FPassing clouds.5 mph41%29.84 "Hg19 mi
9:00 PM92 °FPassing clouds.5 mph35%29.83 "Hg22 mi
8:00 PM96 °FPassing clouds.5 mph26%29.83 "Hg19 mi
7:00 PM99 °FPassing clouds.5 mph21%29.83 "Hg22 mi
6:00 PM98 °FPassing clouds.6 mph23%29.85 "Hg25 mi
5:00 PM100 °FPassing clouds.7 mph21%29.87 "Hg25 mi
4:00 PM99 °FPassing clouds.7 mph24%29.90 "Hg25 mi
3:00 PM99 °FPassing clouds.6 mph26%29.92 "Hg34 mi
2:00 PM98 °FPassing clouds.2 mph28%29.95 "Hg19 mi
1:00 PM95 °FPassing clouds.3 mph33%29.98 "Hg19 mi
12:00 PM91 °FPassing clouds.1 mph37%30.00 "Hg14 mi
11:00 AM86 °FPassing clouds.2 mph51%30.02 "Hg17 mi
10:00 AM80 °FScattered clouds.No wind60%30.05 "Hg19 mi
Weather by CustomWeather, © 2015

See weather overviewHow to use our weather pages